Weather History for KGNA - March, 2014

Change the Weather History Date:

Sunday, March 16, 2014

  Actual Average (KCKC) Record (KCKC)
Temperature  
Mean Temperature 6 °F -  
Max Temperature 18 °F 29 °F 57 °F (2003)
Min Temperature -6 °F 12 °F -23 °F (2014)
Degree Days  
Heating Degree Days 60    
Moisture  
Dew Point -1 °F    
Average Humidity 67    
Maximum Humidity 81    
Minimum Humidity 42    
Precipitation  
Precipitation 0.00 in - - ()
Sea Level Pressure  
Sea Level Pressure 30.45 in    
Wind  
Wind Speed 5 mph (West)    
Max Wind Speed 13 mph    
Max Gust Speed -    
Averages and records for this station are not official NWS values.
T = Trace of Precipitation, MM = Missing Value Source: NWS Daily Summary

Daily Weather History Graph

Daily Weather History Graph

Search for Another Location

Airport or City:

Trip Planner

Search our weather history database for the weather conditions in past years. The results will help you decide how hot, cold, wet, or windy it might be!

Date:

Astronomy

Mar. 16, 2014 Rise Set
Actual Time 7:12 AM CDT 7:08 PM CDT
Civil Twilight 6:41 AM CDT 7:39 PM CDT
Nautical Twilight 6:05 AM CDT 8:15 PM CDT
Astronomical Twilight 5:28 AM CDT 8:52 PM CDT
Moon 7:29 PM CDT (3/16) 6:54 AM CDT (3/16)
Length of Visible Light 12h 57m
Length of Day
11h 56m
Full, 100% of the Moon is Illuminated
Mar 16
Full
Mar 16
Full
Mar 23
Last Quarter
Mar 30
New
Apr 7
First Quarter

Hourly Weather History & Observations

Time (CDT) Temp. Windchill Dew Point Humidity Pressure Visibility Wind Dir Wind Speed Gust Speed Precip Events Conditions
12:56 AM 6.1 °F -2.8 °F -8.0 °F 53% 30.60 in - ENE 4.6 mph - N/A   Unknown
1:56 AM 1.0 °F -8.7 °F -9.0 °F 63% 30.62 in - North 4.6 mph - N/A   Unknown
2:56 AM -2.9 °F -13.3 °F -11.0 °F 68% 30.63 in - NNW 4.6 mph - N/A   Unknown
3:56 AM -5.1 °F -15.8 °F -11.9 °F 72% 30.63 in - NNW 4.6 mph - N/A   Unknown
4:56 AM -6.0 °F -18.6 °F -11.9 °F 75% 30.63 in - NNW 5.8 mph - N/A   Unknown
5:56 AM -6.0 °F -16.9 °F -13.0 °F 72% 30.63 in - NW 4.6 mph - N/A   Unknown
6:56 AM -4.0 °F -16.3 °F -13.0 °F 65% 30.62 in - NNW 5.8 mph - N/A   Unknown
7:56 AM -2.0 °F -12.2 °F -11.9 °F 63% 30.61 in - NNW 4.6 mph - N/A   Unknown
8:56 AM 10.0 °F - -9.0 °F 42% 30.60 in - Calm Calm - N/A   Unknown
9:56 AM 10.0 °F 0.4 °F -7.1 °F 46% 30.58 in - SSW 5.8 mph - N/A   Unknown
10:56 AM 12.0 °F 0.5 °F -0.0 °F 59% 30.56 in - SW 8.1 mph - N/A   Unknown
11:56 AM 14.0 °F 5.1 °F 3.0 °F 62% 30.53 in - SW 5.8 mph - N/A   Unknown
12:56 PM 15.1 °F 2.5 °F 5.0 °F 64% 30.50 in - SSW 10.4 mph - N/A   Unknown
1:56 PM 15.1 °F 1.1 °F 6.1 °F 68% 30.45 in - SW 12.7 mph - N/A   Unknown
2:56 PM 16.0 °F 4.4 °F 7.0 °F 68% 30.42 in - SW 9.2 mph - N/A   Unknown
3:56 PM 17.1 °F 5.0 °F 9.0 °F 71% 30.40 in - SW 10.4 mph - N/A   Unknown
4:56 PM 17.1 °F 7.6 °F 9.0 °F 71% 30.37 in - WSW 6.9 mph - N/A   Unknown
5:56 PM 17.1 °F 8.7 °F 9.0 °F 71% 30.34 in - WSW 5.8 mph - N/A   Unknown
6:56 PM 15.1 °F - 7.0 °F 70% 30.29 in - Calm Calm - N/A   Unknown
7:56 PM 12.0 °F - 6.1 °F 77% 30.25 in - Calm Calm - N/A   Unknown
8:56 PM 10.9 °F - 6.1 °F 81% 30.21 in - Calm Calm - N/A   Unknown
9:56 PM 10.0 °F - 5.0 °F 80% 30.18 in - Calm Calm - N/A   Unknown
10:56 PM 15.1 °F - 8.1 °F 74% 30.14 in - Calm Calm - N/A   Unknown
11:56 PM 12.0 °F - 6.1 °F 77% 30.12 in - Calm Calm - N/A   Unknown